Weather History for PAMR - February, 2015

Change the Weather History Date:

Monday, February 2, 2015

  Actual Average Record
Temperature  
Mean Temperature 10 °F -  
Max Temperature 21 °F 23 °F 23 °F (2014)
Min Temperature 0 °F 11 °F 0 °F (2015)
Degree Days  
Heating Degree Days 54    
Moisture  
Dew Point 4 °F    
Average Humidity 81    
Maximum Humidity 92    
Minimum Humidity 75    
Precipitation  
Precipitation 0.00 in - - ()
Snow  
Snow 0.00 in - - ()
Snow Depth 5.00 in    
Sea Level Pressure  
Sea Level Pressure 29.93 in    
Wind  
Wind Speed 2 mph (ENE)    
Max Wind Speed 5 mph    
Max Gust Speed -    
Visibility 9 miles    
Events Fog    
Averages and records for this station are not official NWS values.
T = Trace of Precipitation, MM = Missing Value Source: NWS Daily Summary

Daily Weather History Graph

Daily Weather History Graph

Search for Another Location

Airport or City:

Trip Planner

Search our weather history database for the weather conditions in past years. The results will help you decide how hot, cold, wet, or windy it might be!

Date:

Astronomy

Feb. 02, 2015 Rise Set
Actual Time 9:17 AM AKST 5:09 PM AKST
Civil Twilight 8:28 AM AKST 5:59 PM AKST
Nautical Twilight 7:35 AM AKST 6:51 PM AKST
Astronomical Twilight 6:45 AM AKST 7:42 PM AKST
Moon 4:35 PM AKST (2/2) 8:12 AM AKST (2/2)
Length of Visible Light 9h 31m
Length of Day
7h 52m
Waxing Gibbous, 99% of the Moon is Illuminated
Feb 2
Waxing Gibbous
Feb 3
Full
Feb 11
Last Quarter
Feb 18
New
Feb 25
First Quarter

Hourly Weather History & Observations

Time (AKST) Temp. Windchill Dew Point Humidity Pressure Visibility Wind Dir Wind Speed Gust Speed Precip Events Conditions
12:53 AM 3.0 °F -6.4 °F -0.9 °F 84% 29.99 in 10.0 mi East 4.6 mph - N/A   Clear
1:53 AM 3.0 °F - -2.0 °F 80% 29.98 in 10.0 mi Calm Calm - N/A   Clear
2:53 AM 1.9 °F - -2.9 °F 80% 29.98 in 10.0 mi Calm Calm - N/A   Clear
3:53 AM -0.0 °F -9.9 °F -5.1 °F 79% 29.97 in 10.0 mi East 4.6 mph - N/A   Clear
4:53 AM 3.0 °F - -2.0 °F 80% 29.97 in 10.0 mi Calm Calm - N/A   Clear
5:53 AM 5.0 °F - -0.0 °F 80% 29.96 in 10.0 mi Calm Calm - N/A   Clear
6:49 AM 1.4 °F -6.2 °F -4.0 °F 78% 29.94 in 1.0 mi East 3.5 mph - N/A   Haze
6:53 AM 1.0 °F -8.7 °F -5.1 °F 75% 29.95 in 1.0 mi East 4.6 mph - N/A   Haze
7:17 AM 3.0 °F -6.4 °F -2.0 °F 80% 29.93 in 0.2 mi East 4.6 mph - N/A   Haze
7:53 AM 9.0 °F - 3.9 °F 80% 29.94 in 10.0 mi Calm Calm - N/A Fog Light Freezing Fog
8:53 AM 7.0 °F - 1.9 °F 80% 29.93 in 10.0 mi Calm Calm - N/A   Partly Cloudy
9:53 AM 5.0 °F - -0.9 °F 76% 29.93 in 7.0 mi Calm Calm - N/A   Clear
10:37 AM 8.1 °F - 1.9 °F 76% 29.91 in 7.0 mi Calm Calm - N/A   Partly Cloudy
10:53 AM 9.0 °F - 3.0 °F 77% 29.92 in 10.0 mi Calm Calm - N/A   Clear
11:53 AM 12.9 °F - 9.0 °F 84% 29.91 in 10.0 mi Calm Calm - N/A   Clear
12:53 PM 19.0 °F - 12.9 °F 77% 29.91 in 10.0 mi Calm Calm - N/A   Clear
1:53 PM 19.0 °F 13.9 °F 14.0 °F 81% 29.90 in 10.0 mi NNW 3.5 mph - N/A   Clear
2:53 PM 19.9 °F 14.9 °F 14.0 °F 78% 29.89 in 10.0 mi North 3.5 mph - N/A   Clear
3:53 PM 21.0 °F 16.2 °F 15.1 °F 78% 29.88 in 10.0 mi NNW 3.5 mph - N/A   Clear
4:53 PM 19.9 °F - 15.1 °F 81% 29.88 in 10.0 mi Calm Calm - N/A   Clear
5:53 PM 8.1 °F 1.4 °F 6.1 °F 92% 29.89 in 10.0 mi East 3.5 mph - N/A   Clear
6:53 PM 14.0 °F - 10.0 °F 84% 29.90 in 10.0 mi Calm Calm - N/A   Clear
7:35 PM 10.9 °F - 8.1 °F 88% 29.89 in 10.0 mi Calm Calm - N/A   Partly Cloudy
7:53 PM 12.0 °F - 8.1 °F 84% 29.91 in 10.0 mi Calm Calm - N/A   Clear
8:53 PM 9.0 °F - 5.0 °F 84% 29.91 in 10.0 mi Calm Calm - N/A   Clear
9:53 PM 6.1 °F - 1.9 °F 83% 29.93 in 10.0 mi Calm Calm - N/A   Clear
10:53 PM 5.0 °F - 1.0 °F 84% 29.95 in 10.0 mi Calm Calm - N/A   Clear
11:53 PM 3.9 °F -3.4 °F -0.9 °F 80% 29.96 in 10.0 mi ENE 3.5 mph - N/A   Clear